GW2259 Weather Reports


Display with metric or nautical units.
time (UTC)temp
F
wind
direction
speed
MPH
gust
MPH
rain 1hr
in
rain 24hr
in
rain mn
in
humidity
%
barometer
mb
20260901143047 83 198 4.0 7.0 0.00 0.00 0.00 63 1018.4
20260901141545 83 202 4.0 7.0 0.00 0.00 0.00 65 1018.5
20260901140037 82 0 1.0 3.0 0.00 0.00 0.00 69 1018.5
20260901134542 79 0 0.0 3.0 0.00 0.00 0.00 74 1018.5
20260901133040 79 0 0.0 1.0 0.00 0.00 0.00 75 1018.3
20260901131544 75 278 0.0 1.0 0.00 0.00 0.00 80 1018.3
20260901130052 75 0 0.0 0.0 0.00 0.00 0.00 81 1018.1
20260901124540 72 0 0.0 0.0 0.00 0.00 0.00 84 1017.8
20260901123042 70 123 0.0 1.0 0.00 0.00 0.00 87 1017.7
20260901121538 70 0 0.0 0.0 0.00 0.00 0.00 86 1017.6
20260901120038 71 0 0.0 1.0 0.00 0.00 0.00 85 1017.4
20260901114608 71 0 0.0 1.0 0.00 0.00 0.00 84 1017.4
20260901113042 72 198 0.0 1.0 0.00 0.00 0.00 84 1017.4
20260901111544 72 0 0.0 1.0 0.00 0.00 0.00 83 1017.5
20260901110039 72 0 0.0 0.0 0.00 0.00 0.00 84 1017.4
20260901104539 72 0 0.0 0.0 0.00 0.00 0.00 83 1017.4
20260901103042 72 0 0.0 3.0 0.00 0.00 0.00 82 1017.4
20260901101545 73 127 0.0 3.0 0.00 0.00 0.00 80 1017.2
20260901100035 74 89 1.0 4.0 0.00 0.00 0.00 79 1017.3
20260901094544 73 73 0.0 4.0 0.00 0.00 0.00 79 1017.3
20260901093042 73 198 0.0 2.0 0.00 0.00 0.00 78 1016.9
20260901091545 74 143 0.0 2.0 0.00 0.00 0.00 78 1017.0
20260901090049 74 148 2.0 4.0 0.00 0.00 0.00 78 1016.9
20260901084544 73 119 2.0 3.0 0.00 0.00 0.00 77 1017.0
20260901083041 74 146 2.0 3.0 0.00 0.00 0.00 75 1016.8
20260901081536 74 0 0.0 1.0 0.00 0.00 0.00 75 1016.9
20260901080043 75 0 0.0 3.0 0.00 0.00 0.00 73 1017.0
20260901074545 75 198 2.0 3.0 0.00 0.00 0.00 73 1016.8
20260901073041 76 136 3.0 4.0 0.00 0.00 0.00 72 1016.7
20260901071537 76 132 2.0 3.0 0.00 0.00 0.00 70 1017.0
20260901070053 77 180 2.0 4.0 0.00 0.00 0.00 68 1016.8
20260901064541 78 136 3.0 6.0 0.00 0.00 0.00 67 1016.9
20260901063041 79 150 4.0 8.0 0.00 0.00 0.00 65 1016.9
20260901061536 79 132 5.0 7.0 0.00 0.00 0.00 64 1016.8
20260901060037 79 148 6.0 10.0 0.00 0.00 0.00 63 1016.7
20260901054535 78 150 4.0 9.0 0.00 0.00 0.00 64 1016.6
20260901053047 76 125 3.0 5.0 0.00 0.00 0.00 66 1016.5
20260901051544 75 99 4.0 6.0 0.00 0.00 0.00 68 1016.2
20260901050041 75 0 0.0 0.0 0.00 0.00 0.00 67 1016.1
20260901044552 75 0 0.0 0.0 0.00 0.00 0.00 67 1016.0
20260901043042 76 0 0.0 1.0 0.00 0.00 0.00 66 1016.0
20260901041540 77 131 0.0 2.0 0.00 0.00 0.00 64 1016.1
20260901040048 79 129 2.0 3.0 0.00 0.00 0.00 61 1016.1
20260901034541 80 114 3.0 6.0 0.00 0.00 0.00 58 1016.1
20260901033052 80 102 3.0 6.0 0.00 0.00 0.00 58 1016.0
20260901031542 80 112 3.0 6.0 0.00 0.00 0.00 57 1015.9
20260901030042 80 117 3.0 4.0 0.00 0.00 0.00 57 1015.6
20260901024536 81 110 3.0 5.0 0.00 0.00 0.00 56 1015.5
20260901023045 82 114 4.0 7.0 0.00 0.00 0.00 55 1015.3
20260901021558 82 124 4.0 8.0 0.00 0.00 0.00 54 1015.1
20260901020042 83 117 3.0 5.0 0.00 0.00 0.00 53 1014.8
20260901014541 84 103 3.0 5.0 0.00 0.00 0.00 51 1014.7
20260901013051 85 108 4.0 6.0 0.00 0.00 0.00 48 1014.6
20260901011605 87 113 4.0 8.0 0.00 0.00 0.00 46 1014.4
20260901010039 88 110 8.0 12.0 0.00 0.00 0.00 44 1014.3
20260901004538 90 123 6.0 12.0 0.00 0.00 0.00 42 1014.1
20260901003048 92 118 6.0 13.0 0.00 0.00 0.00 40 1014.1
20260901001541 93 99 8.0 16.0 0.00 0.00 0.00 39 1014.0
20260901000038 94 110 9.0 15.0 0.00 0.00 0.00 37 1013.9
20260831234541 96 119 9.0 15.0 0.00 0.00 0.00 35 1013.8
20260831233038 97 94 7.0 15.0 0.00 0.00 0.00 32 1013.8
20260831231543 97 113 9.0 14.0 0.00 0.00 0.00 33 1013.7
20260831230039 96 127 9.0 13.0 0.00 0.00 0.00 33 1013.8
20260831224539 97 131 9.0 15.0 0.00 0.00 0.00 32 1013.9
20260831223045 96 106 7.0 12.0 0.00 0.00 0.00 34 1013.8
20260831221554 94 128 9.0 16.0 0.00 0.00 0.00 36 1014.2
20260831220038 96 134 8.0 15.0 0.00 0.00 0.00 33 1014.1
20260831214552 95 117 6.0 14.0 0.00 0.00 0.00 34 1014.3
20260831213041 96 126 4.0 10.0 0.00 0.00 0.00 34 1014.4
20260831211544 97 131 8.0 16.0 0.00 0.00 0.00 34 1014.7
20260831210035 95 139 8.0 13.0 0.00 0.00 0.00 36 1014.9
20260831204544 95 72 9.0 17.0 0.00 0.00 0.00 37 1015.2
20260831203048 95 113 9.0 14.0 0.00 0.00 0.00 37 1015.4
20260831201546 95 133 8.0 17.0 0.00 0.00 0.00 38 1015.5
20260831200047 93 145 6.0 12.0 0.00 0.00 0.00 41 1015.9
20260831194542 93 89 7.0 14.0 0.00 0.00 0.00 40 1016.1
20260831193042 92 155 6.0 12.0 0.00 0.00 0.00 41 1016.2
20260831191536 92 124 6.0 10.0 0.00 0.00 0.00 45 1016.4
20260831190049 93 89 6.0 12.0 0.00 0.00 0.00 44 1016.5
20260831184542 93 113 7.0 14.0 0.00 0.00 0.00 44 1016.7
20260831183041 91 203 3.0 10.0 0.00 0.00 0.00 46 1016.9
20260831181539 92 84 2.0 12.0 0.00 0.00 0.00 48 1017.1
20260831180054 91 96 5.0 13.0 0.00 0.00 0.00 49 1017.4
20260831174541 90 138 5.0 13.0 0.00 0.00 0.00 50 1017.6
20260831173041 90 116 8.0 12.0 0.00 0.00 0.00 51 1017.7
20260831171543 89 165 4.0 13.0 0.00 0.00 0.00 54 1017.8
20260831170045 88 194 7.0 11.0 0.00 0.00 0.00 54 1017.9
20260831164543 87 162 7.0 11.0 0.00 0.00 0.00 58 1018.0
20260831163040 86 176 5.0 11.0 0.00 0.00 0.00 61 1018.0
20260831161547 85 136 5.0 10.0 0.00 0.00 0.00 61 1018.0
20260831160043 83 127 6.0 10.0 0.00 0.00 0.00 65 1017.9
20260831154603 84 229 4.0 11.0 0.00 0.00 0.00 64 1018.0
20260831153041 84 202 5.0 11.0 0.00 0.00 0.00 65 1017.8
20260831151543 84 134 5.0 10.0 0.00 0.00 0.00 65 1017.8
20260831150041 83 173 5.0 10.0 0.00 0.00 0.00 68 1017.8
20260831144550 83 191 5.0 10.0 0.00 0.00 0.00 68 1017.7